Location: ?????
(30.2541°N, 31.0910°E)
Time: 10:12:11
(UTC+00:00)

Cosmos 1633 Rocket - Pass Details

Date: 11 April 2023
Orbit: 604 x 623 km, 82.5° (Epoch: 29 May)

Event Time Altitude Azimuth Distance (km) Brightness Sun altitude
Rises 01:58:33 0° 338° (NNW) 2,886 6.5 -20.5°
Reaches altitude 10° 02:01:05 10° 325° (NW) 1,973 5.5 -20.0°
Enters shadow 02:01:58 14° 317° (NW) 1,700 5.1 -19.8°
